Regional Weather Roundup
Issued by NWS

Home | Current Version | Previous Version | Text Only | Print | Product List | Glossary On
Versions: 1 2 3 4 5 6 7 8 9 10 11 12 13 14 15 16 17 18 19 20 21 22 23 24 25 26 27 28 29 30 31 32 33 34 35 36 37 38 39 40 41 42 43 44 45 46 47 48 49 50
000
ASUS43 KTOP 230108
RWRKS

WEATHER ROUNDUP FOR KANSAS
NATIONAL WEATHER SERVICE GOODLAND KS
800 PM CDT TUE APR 22 2014

NOTE:  "FAIR" INDICATES FEW OR NO CLOUDS BELOW 12,000 FEET WITH NO
SIGNIFICANT WEATHER AND/OR OBSTRUCTIONS TO VISIBILITY.

KSZ001>006-013>018-027>032-041>047-230200-
NORTHWEST KANSAS

CITY           SKY/WX    TMP DP  RH WIND       PRES   REMARKS
GOODLAND       PTCLDY    70  44  39 S25G33    29.74S
HAYS           MOCLDY   N/A N/A N/A SE21      29.86F
HILL CITY      MOCLDY    71  39  31 SE13      29.82F
RUSSELL        MOCLDY    68  33  27 SE15      29.87F
$$

KSZ061>065-074>080-084>089-230200-
SOUTHWEST KANSAS

CITY           SKY/WX    TMP DP  RH WIND       PRES   REMARKS
DODGE CITY     CLEAR     72  38  29 SE20      29.86F
ELKHART          N/A     79  40  24 S17         N/A
GARDEN CITY    PTCLDY    74  43  32 SE25G32   29.80F
GREAT BEND     MOCLDY    70  28  21 SE17      29.88F
LIBERAL        CLEAR     75  39  27 S23G29    29.84S
PRATT          MOCLDY    72  30  21 SE12G20   29.92F
$$

KSZ066>073-081>083-090>101-230200-
SOUTHEAST KANSAS

CITY           SKY/WX    TMP DP  RH WIND       PRES   REMARKS
CHANUTE        CLEAR     65  33  30 E6        29.97F
COFFEYVILLE    CLEAR     66  35  31 E5        29.96F
HUTCHINSON     MOCLDY    68  32  26 S10       29.93S
MEDICINE LODGE   N/A     72  34  24 SE9       29.91F
NEWTON         PTCLDY    64  30  27 SE9       29.97F
PARSONS        CLEAR     64  34  32 CALM      29.98F
WICHITA INTL   MOCLDY    69  30  23 SE8       29.93F
WICHITA JABRA  PTCLDY    66  31  27 E8        29.94F
WICHITA MCCONL PTCLDY    68  28  22 E7        29.94F
WINFIELD       MOCLDY    69  33  26 E7        29.95F
$$

KSZ007>012-019>026-033>040-048>060-102>105-230200-
NORTHEAST KANSAS

CITY           SKY/WX    TMP DP  RH WIND       PRES   REMARKS
CONCORDIA      MOCLDY    68  30  24 SE15      29.91F
EMPORIA        CLEAR     63  30  28 E8        29.96F
LAWRENCE       CLEAR     64  34  32 E5        29.98F
MANHATTAN      PTCLDY    68  33  27 SE7       29.94F
OLATHE IND     CLEAR     63  31  30 SE7       29.98F
OLATHE EXE     PTCLDY    63  31  30 E6        29.98F
SALINA         PTCLDY    70  30  22 SE12      29.92F
TOPEKA BILLARD CLEAR     65  34  31 E8        29.97F
TOPEKA FORBES  CLEAR     65  32  29 E6        29.97F
$$



USA.gov is the U.S. government's official web portal to all federal, state and local government web resources and services.